Погода Каменск-Шахтинский

Погода Каменск-Шахтинский : погода сейчас, прогноз погоды и архив. Всё, что Вы хотите узнать о погоде Каменск-Шахтинский!

Хотите узнать прогноз погоды Каменск-Шахтинский? Тогда Вам сюда: Погода Каменск-Шахтинский

Поиск расширенной информации на нашем сайте:

Полезная информация: Прочистка канализации в загородном доме "Servis 24".

Другие новости

Новости СМИ2

Главная страница сайта

Новости сайта

03.07.2017

Напоминаем, что на нашем специализированном сайте Метеоцентр.Азия вы можете получить высокодетализированные автоматические прогнозы погоды по пунктам России, СНГ и мира в авиационном формате (включающие направление и скорость ветра, видимость, явления погоды, количество и форму облачности, нижнюю и верхнюю границу облачности).

Рекомендуем: Дешевая недвижимость в Теплице свой уголок в Европе

Погода Каменск-Шахтинский - сегодня

Время (UTC), дата Ветер
(°,м/с) 
Видим.   Явления Облачность Т
(°С)
Тd
(°С)
f(%) Тe
(°С)
Pmin
(гПа)
dP
(гПа)
Po
(мм)
O2
(г/м3)
Тmin Tmax R s Состояние
почвы
18 21.04.18 220 (ЮЗ) 5-10{10}  20000 м    ясно 
+12.7 +2.5 50 +12  1007.6  -1.1  750  289           
00 22.04.18 230 (ЮЗ) 9-16{17}  20000 м    ясно 
+11.6 +2.8 55 +10  1000.9  -4.1  746  288           
03 22.04.18 250 (З) 6-10{16}  20000 м  слаб. ливневой дождь  10/8 600 м кучево-дожд., средняя 
[Cb cap|Ac und]
+10.8 +5.1 68 +9  1001.3  0.4  746  288  +10.8    0.5    влажная 
06 22.04.18 330 (СЗ) 4{11}  20000 м  {ливн. осадки}  3/3 600 м кучево-дожд. 
[Cb cap]
+15.6 +4.6 48 +16  1002.3  1.1  747  284  +10.7         
09 22.04.18 300 (СЗ) 5{11}  20000 м    4/3 1000 м верхняя 
[Cu hum|Ci fib]
+17.4 -3 25 +17  1002.6  0.3  747  283           
12 22.04.18 300 (СЗ) 6-11{13}  20000 м    8/8 1000 м 
[Cu med, cong]
+18.1 -4.3 21 +18  1002.5  0.1  747  283           
15 22.04.18 300 (СЗ) 6-10  20000 м    8/8 1000 м средняя 
[Cu med, cong|Ac trans]
+17.1 -3.5 24 +17  1002.7  0.2  747  284    +19       
18 22.04.18 310 (СЗ) 3{13}  20000 м    8/8 600 м кучево-дожд. 
[Cb cap]
+13.8 -2.6 32 +14  1005.6  2.8  749  288           
21 22.04.18 280 (З) 4{14}  20000 м    ясно 
+10.5 -1 45 +10  1006.8  1.1  750  291           
00 23.04.18 260 (З) 20000 м    ясно 
+6.7 +0.1 63 +6  1007.8  0.9  751  295           
03 23.04.18 290 (З) 20000 м    ясно 
+5.6 +0.1 68 +5  1008.8  0.9  751  297  +5.2        сухая 
06 23.04.18 320 (СЗ) 20000 м    8/4 600 м кучево-дожд., средняя 
[Cb calv|Ac trans]
+9.2 +2 61 +9  1010  1.3  752  293           
09 23.04.18 330 (СЗ) 20000 м    9/8 600 м кучево-дожд., средняя 
[Cb calv|Ac trans]
+9.5 +0.4 53 +9  1011.6  1.6  753  293           
12 23.04.18 320 (СЗ) 20000 м    9/8 600 м кучево-дожд., средняя 
[Cb calv|Ac trans]
+10.6 -2.4 40 +10  1012.1  0.5  754  293           
15 23.04.18 340 (С) 3{11}  20000 м    8/5 600 м кучево-дожд., средняя 
[Cb calv|Ac trans]
+9.7 -5.5 34 +9  1013.4  1.3  755  294    +11.1       
18 23.04.18 тихо ()   20000 м    3/0 средняя 
[Ac trans]
+5.3 -5.6 45 +5  1016.4  2.8  757  300           
21 23.04.18 тихо ()   20000 м    ясно 
+2.1 -5.3 58 +2  1017.7  1.3  758  304           
00 24.04.18 тихо ()   20000 м    ясно 
-1.7 -4.2 83 -2  1018.7  0.8  758  308           
03 24.04.18 340 (С) 20000 м    ясно 
-1.2 -3.9 82 -1  1019.3  0.6  759  308  -1.8        сухая 
06 24.04.18 010 (С) 20000 м    ясно 
+8.8 -4.5 39 +10  1019.6  0.5  759  297           
09 24.04.18 270 (З) 20000 м    3/0 верхняя 
[Ci fib]
+13 -5.6 27 +13  1018.6  -0.8  759  292           
12 24.04.18 280 (З) 20000 м    10/1 1000 м верхняя 
[Cu med, cong|Ci fib]
+16.1 -5.4 22 +16  1016.7  -1.8  757  289           
15 24.04.18 230 (ЮЗ) 20000 м    9/6 600 м кучево-дожд., средняя 
[Cb cap|Ac As]
+16.7 -1.3 29 +18  1014.9  -1.8  756  287    +17.8       
18 24.04.18 280 (З) 20000 м    10/8 600 м кучево-дожд., средняя 
[Cb cap|Ac As]
+14.2 +3 47 +15  1015  756  289           
21 24.04.18 тихо ()   20000 м  слаб. ливневой дождь  10/8 600 м кучево-дожд., средняя 
[Cb cap|Ac As]
+10.6 +8.2 85 +11  1014.4  -0.6  756  292           
Время (UTC), дата Ветер
(°,м/с) 
Видим.   Явления Облачность Т
(°С)
Тd
(°С)
f(%) Тe
(°С)
Pmin
(гПа)
dP
(гПа)
Po
(мм)
O2
(г/м3)
Тmin Tmax R s Состояние
почвы

Для получения пояснительной информации подведите курсор к названию столбца.

ПОГОДА Каменск-Шахтинский - архив

Всё, что Вы хотите узнать о погоде Каменск-Шахтинский - удобно и подробно!

Выберите нужную дату (начиная с 1 января 2015* года) и нажмите кнопку "Найти".
Будут отображены архивные сводки погоды по пункту Каменск-Шахтинский, начиная с указанной даты.


Отображать данные в формате CSV (для использования в таблицах Excel)


Внимание! Наш архив погоды предназначен исключительно для личного некоммерческого использования в познавательных целях. Если Вам необходимы официальные справки о состоянии погоды (для производственных, юридических, коммерческих и т.п. целей), обращайтесь в органы Росгидромета.

*Примечание: данная дата относится к архиву по метеостанциям СССР (Россия, СНГ, Балтия).
Архив по метеостанциям Зарубежной Европы и Азии (кроме Китая) хранится 10 дней, по другим регионам земного шара (Китай, Африка, Америка, Австралия, Океания) - 1 день.

Каменск-Шахтинский - район местоположения метеостанции


Название, широта, долгота, высота метеостанции:
Каменск-Шахтинский 48.3°ш. 40.3°д. 51 м над ур. моря [Российская Федерация]

Дополнительная информация

В oтличие oт бoльшинства пoгoдных сайтoв мы публикуем пoдрoбную метеoинфoрмацию в детальнoм прoфессиoнальнoм фoрмате.

Характеристики температуры и влажнoсти вoздуха измеряются на высoте 2 м в тени вдали oт зданий и деревьев.
Скoрoсть ветра измеряется на высoте 10 м (на урoвне рoста челoвека скoрoсть ветра ниже в 1.5-2 раза). Если метеoстанция нахoдится в гoрoде или в лесу, тo скoрoсть ветра занижена на 2-4 м/с пo сравнению с oткрытым местoм. Скoрoсть ветра над акватoриями крупных рек и oзёр, а также на вершинах хoлмoв на 2-5 м/с выше, чем в oбычных услoвиях.
Атмoсфернoе давление в разных тoчках местнoсти мoжет значительнo oтличаться oт давления на метеoстанции, в зависимoсти oт услoвий рельефа (при пoдъёме на 10 м давление пoнижается примернo на 1 мм рт.ст.).